Regional Weather Roundup
Issued by NWS Kansas City/Pleasant Hill, MO

Home | Current Version | Previous Version | Text Only | Print | Product List | Glossary On
Versions: 1 2 3 4 5 6 7 8 9 10 11 12 13 14 15 16 17 18 19 20 21 22 23 24 25 26 27
000
ASUS43 KEAX 220810
RWREAX

WEATHER ROUNDUP FOR EASTERN KANSAS AND NORTHWEST MISSOURI
NATIONAL WEATHER SERVICE KANSAS CITY/PLEASANT HILL MO
300 AM CDT SUN APR 22 2018

KSZ040-057-103>105-MOZ028-029-037-043-220900-
...KANSAS CITY METROPOLITAN AREA...

CITY           SKY/WX    TMP DP  RH WIND       PRES   REMARKS
K.C. INTL      CLOUDY    53  30  41 NE12      30.11F
K.C. DOWNTOWN  CLOUDY    56  30  37 NE7       30.09F
LEES SUMMIT    CLOUDY    54  31  41 NE13      30.10F
OLATHE - IXD   CLOUDY    54  31  41 NE9       30.09F
OLATHE - OJC   CLOUDY    53  30  41 NE10      30.08F
LAWRENCE       CLOUDY    54  31  41 NE14      30.09F

$$

MOZ001>008-011>017-020>025-030>033-038>040-044>046-053-054-220900-
...NORTHERN AND CENTRAL MISSOURI...

CITY           SKY/WX    TMP DP  RH WIND       PRES   REMARKS
ST. JOSEPH     CLOUDY    53  30  41 NE9       30.13F
MOSBY          CLOUDY    54  30  40 E6        30.12S
WARRENSBURG    DRIZZLE   54  34  47 N8        30.09S
WHITEMAN AFB   CLOUDY    54  35  48 E12       30.04F
CLINTON        CLOUDY    55  36  47 NE8       30.06F
SEDALIA        CLOUDY    54  40  59 NE9       30.09F
WARSAW         NOT AVBL
CHILLICOTHE      N/A     53  31  42 NE6       30.17F
KIRKSVILLE     CLOUDY    51  32  48 E12G21    30.19F

$$

MOZ041-047>049-056>058-063>065-088>090-097-220900-
...EASTERN AND SOUTHERN MISSOURI...

CITY           SKY/WX    TMP DP  RH WIND       PRES   REMARKS
ST. LOUIS INTL CLOUDY    55  32  41 E13       30.16S
SPIRIT OF STL  CLOUDY    56  35  45 E8        30.14F
COLUMBIA       CLOUDY    56  32  40 E8        30.11F
JEFFERSON CITY CLOUDY    59  32  36 E12G21    30.11F
ROLLA          CLOUDY    56  33  42 E12       30.09F
OSAGE BEACH    CLOUDY    57  37  47 NE10      30.07F
SPRINGFIELD    CLOUDY    55  45  68 E8        29.98F
BRANSON        LGT RAIN  52  50  93 E9        29.97F
JOPLIN         CLOUDY    51  50  96 NE7       30.00F
WEST PLAINS    CLOUDY    55  47  74 E12       30.04F

$$

IAZ060-094-KSZ022-034>040-054-083-096-NEZ052-066-093-220900-
...KANSAS...SOUTHEAST NEBRASKA AND IOWA...

CITY           SKY/WX    TMP DP  RH WIND       PRES   REMARKS
TOPEKA         CLOUDY    50  38  63 NE7       30.10F
MANHATTAN      CLOUDY    47  41  80 N7        30.12F
EMPORIA        CLOUDY    45  42  89 NW6       30.07F
CHANUTE        RAIN      48  46  93 N9        30.04F FOG
WICHITA        LGT RAIN  45  45 100 N13       30.09F
OMAHA          CLOUDY    50  29  44 E10G21    30.21F
LINCOLN        CLOUDY    42  34  73 N6        30.21F
FALLS CITY     CLOUDY    49  31  49 NE6       30.15F
LAMONI         CLOUDY    48  31  51 NE10      30.20S
DES MOINES     CLOUDY    49  33  54 E9        30.26F

$$





USA.gov is the U.S. government's official web portal to all federal, state and local government web resources and services.